Location: Munkebjergskolens Observatorium
(55.3864°N, 10.3987°E)
Time: 23:28:42
(UTC+01:00)

Envisat - Pass Details

Date: 02 December 2022
Orbit: 763 x 765 km, 98.2° (Epoch: 01 February)

Event Time Altitude Azimuth Distance (km) Brightness Sun altitude
Rises 17:18:17 0° 224° (SW) 3,226 7.6 -11.3°
Reaches altitude 10° 17:22:03 10° 252° (WSW) 2,307 7.0 -11.8°
Maximum altitude 17:24:13 13° 278° (W) 2,129 6.3 -12.1°
Drops below altitude 10° 17:26:24 10° 304° (WNW) 2,314 6.0 -12.3°
Sets 17:30:12 0° 333° (NNW) 3,248 6.3 -12.8°
